Iron Mountain, MI

12:05 PM CDT on July 28, 2017 (GMT -0500)
Ford

Weather History for KIMT - October, 2011

Change the Weather History Date:

Thursday, October 13, 2011

  Actual Average Record
Temperature  
Mean Temperature 52 °F -  
Max Temperature 57 °F 56 °F 81 °F (1956)
Min Temperature 46 °F 34 °F 18 °F (1988)
Degree Days  
Heating Degree Days 14    
Growing Degree Days 2 (Base 50)    
Moisture  
Dew Point 50 °F    
Average Humidity 95    
Maximum Humidity 100    
Minimum Humidity 81    
Precipitation  
Precipitation 0.22 in - - ()
Sea Level Pressure  
Sea Level Pressure 29.55 in    
Wind  
Wind Speed 3 mph (SSE)    
Max Wind Speed 13 mph    
Max Gust Speed -    
Visibility 4 miles    
Events Fog , Rain    
Averages and records for this station are not official NWS values.
T = Trace of Precipitation, MM = Missing Value Source: NWS Daily Summary

Daily Weather History Graph

Daily Weather History Graph

Search for Another Location

Airport or City:

Trip Planner

Search our weather history database for the weather conditions in past years. The results will help you decide how hot, cold, wet, or windy it might be!

Date:

Astronomy

Oct. 13, 2011 Rise Set
Actual Time 7:06 AM CDT 6:10 PM CDT
Civil Twilight 6:36 AM CDT 6:40 PM CDT
Nautical Twilight 6:01 AM CDT 7:14 PM CDT
Astronomical Twilight 5:27 AM CDT 7:49 PM CDT
Moon 6:36 PM CDT (10/13) 8:46 AM CDT (10/13)
Length of Visible Light 12h 04m
Length of Day
11h 04m
Full, 98% of the Moon is Illuminated
Oct 13
Full
Oct 19
Last Quarter
Oct 26
New
Nov 2
First Quarter
Nov 10
Full

Hourly Weather History & Observations

Time (CDT) Temp. Windchill Dew Point Humidity Pressure Visibility Wind Dir Wind Speed Gust Speed Precip Events Conditions
12:10 AM 48.2 °F - 46.4 °F 93% 29.69 in 1.8 mi Calm Calm - N/A   Clear
12:20 AM 48.2 °F - 46.4 °F 93% 29.69 in 0.8 mi Calm Calm - N/A   Clear
12:25 AM 46.4 °F - 46.4 °F 100% 29.69 in 0.2 mi Calm Calm - N/A Fog Fog
12:37 AM 46.4 °F - 46.4 °F 100% 29.69 in 0.2 mi Calm Calm - N/A Fog Fog
12:50 AM 46.4 °F - 46.4 °F 100% 29.69 in 1.2 mi Calm Calm - N/A   Clear
12:54 AM 46.9 °F - 46.0 °F 97% 29.70 in 1.2 mi Calm Calm - N/A   Clear
1:22 AM 46.4 °F 45.2 °F 46.4 °F 100% 29.69 in 3.0 mi South 3.5 mph - N/A   Clear
1:54 AM 46.9 °F - 46.0 °F 97% 29.69 in 3.0 mi Calm Calm - N/A   Clear
2:30 AM 46.4 °F 45.2 °F 46.4 °F 100% 29.67 in 2.0 mi SSE 3.5 mph - N/A   Clear
2:54 AM 48.0 °F - 46.0 °F 93% 29.67 in 3.0 mi Calm Calm - N/A   Clear
3:14 AM 46.4 °F 45.2 °F 46.4 °F 100% 29.66 in 2.0 mi South 3.5 mph - N/A   Clear
3:26 AM 48.2 °F - 46.4 °F 93% 29.66 in 1.8 mi South 4.6 mph - N/A   Clear
3:54 AM 46.9 °F - 46.0 °F 97% 29.65 in 1.2 mi Calm Calm - N/A   Clear
4:08 AM 48.2 °F - 46.4 °F 93% 29.64 in 2.5 mi Calm Calm - N/A   Clear
4:15 AM 48.2 °F - 46.4 °F 93% 29.64 in 3.0 mi South 3.5 mph - N/A   Clear
4:20 AM 46.4 °F 44.3 °F 46.4 °F 100% 29.64 in 1.5 mi South 4.6 mph - N/A   Clear
4:41 AM 46.4 °F 45.2 °F 46.4 °F 100% 29.64 in 1.8 mi SSE 3.5 mph - N/A   Clear
4:54 AM 48.0 °F - 46.9 °F 96% 29.65 in 2.0 mi Calm Calm - N/A   Partly Cloudy
5:05 AM 48.2 °F - 46.4 °F 93% 29.64 in 3.0 mi Calm Calm - N/A   Partly Cloudy
5:54 AM 51.1 °F - 50.0 °F 96% 29.65 in 5.0 mi SE 3.5 mph - N/A   Clear
6:54 AM 52.0 °F - 50.0 °F 93% 29.63 in 7.0 mi ESE 6.9 mph - N/A   Mostly Cloudy
7:40 AM 51.8 °F - 51.8 °F 100% 29.61 in 5.0 mi East 5.8 mph - N/A   Overcast
7:54 AM 52.0 °F - 51.1 °F 97% 29.62 in 5.0 mi ESE 6.9 mph - N/A   Overcast
8:05 AM 53.6 °F - 51.8 °F 94% 29.61 in 3.0 mi SE 6.9 mph - N/A   Overcast
9:54 AM 54.0 °F - 52.0 °F 93% 29.60 in 6.0 mi ESE 10.4 mph - N/A   Overcast
10:46 AM 55.4 °F - 51.8 °F 88% 29.57 in 10.0 mi Variable 5.8 mph - N/A   Overcast
10:54 AM 55.9 °F - 53.1 °F 90% 29.57 in 10.0 mi SE 5.8 mph - N/A   Overcast
11:36 AM 57.2 °F - 53.6 °F 88% 29.55 in 10.0 mi SSE 4.6 mph - N/A   Overcast
11:54 AM 57.9 °F - 53.1 °F 84% 29.55 in 10.0 mi SSE 5.8 mph - N/A   Overcast
12:26 PM 57.2 °F - 51.8 °F 82% 29.52 in 10.0 mi SSE 6.9 mph - N/A   Overcast
12:54 PM 57.9 °F - 52.0 °F 81% 29.52 in 10.0 mi SE 9.2 mph - N/A   Overcast
1:54 PM 57.9 °F - 52.0 °F 81% 29.50 in 10.0 mi SSE 8.1 mph - 0.00 in Rain Light Rain
2:54 PM 55.9 °F - 53.1 °F 90% 29.49 in 4.0 mi SSE 4.6 mph - 0.00 in Rain Light Rain
3:34 PM 55.4 °F - 53.6 °F 94% 29.47 in 3.0 mi Calm Calm - 0.00 in Rain Light Rain
3:45 PM 55.4 °F - 53.6 °F 94% 29.46 in 2.5 mi Calm Calm - 0.00 in Rain Light Rain
3:54 PM 55.9 °F - 54.0 °F 93% 29.47 in 3.0 mi Calm Calm - 0.00 in Rain Light Rain
4:54 PM 55.0 °F - 54.0 °F 96% 29.46 in 3.0 mi ESE 5.8 mph - 0.00 in Rain Light Rain
5:02 PM 55.4 °F - 53.6 °F 94% 29.45 in 2.5 mi SE 3.5 mph - 0.01 in Rain Light Rain
5:14 PM 55.4 °F - 53.6 °F 94% 29.44 in 2.0 mi ESE 4.6 mph - 0.01 in Rain Light Rain
5:26 PM 55.4 °F - 53.6 °F 94% 29.44 in 2.0 mi ESE 4.6 mph - 0.01 in Rain Light Rain
5:54 PM 55.0 °F - 54.0 °F 96% 29.45 in 2.0 mi Calm Calm - 0.02 in Rain Light Rain
6:04 PM 55.4 °F - 53.6 °F 94% 29.44 in 2.5 mi Calm Calm - 0.01 in Rain Light Rain
6:15 PM 53.6 °F - 53.6 °F 100% 29.44 in 3.0 mi SE 4.6 mph - 0.02 in Rain Light Rain
6:22 PM 53.6 °F - 53.6 °F 100% 29.44 in 3.0 mi SE 5.8 mph - 0.02 in Rain Light Rain
6:30 PM 53.6 °F - 53.6 °F 100% 29.44 in 3.0 mi SE 4.6 mph - 0.03 in Rain Light Rain
6:44 PM 53.6 °F - 53.6 °F 100% 29.44 in 3.0 mi Calm Calm - 0.04 in Rain Rain
7:05 PM 53.6 °F - 53.6 °F 100% 29.44 in 2.5 mi Calm Calm - 0.01 in Rain Rain
7:32 PM 53.6 °F - 53.6 °F 100% 29.44 in 1.5 mi Calm Calm - 0.06 in Rain Rain
7:36 PM 53.6 °F - 53.6 °F 100% 29.44 in 2.0 mi Calm Calm - 0.06 in Rain Rain
7:54 PM 53.1 °F - 52.0 °F 96% 29.45 in 1.8 mi NW 5.8 mph - 0.12 in Rain Heavy Rain
8:08 PM 53.6 °F - 51.8 °F 94% 29.44 in 1.5 mi NNW 5.8 mph - 0.07 in Rain Rain
8:14 PM 53.6 °F - 51.8 °F 94% 29.44 in 3.0 mi NW 5.8 mph - 0.08 in Rain Light Rain
8:54 PM 52.0 °F - 51.1 °F 97% 29.44 in 4.0 mi NW 3.5 mph - 0.08 in Rain Light Rain
9:54 PM 52.0 °F - 51.1 °F 97% 29.44 in 7.0 mi NW 4.6 mph - 0.00 in Rain Light Rain
10:31 PM 51.8 °F - 51.8 °F 100% 29.42 in 8.0 mi WNW 3.5 mph - 0.00 in Rain Light Rain
10:54 PM 52.0 °F - 51.1 °F 97% 29.42 in 9.0 mi WNW 4.6 mph - 0.00 in Rain Light Rain
11:54 PM 51.1 °F - 48.9 °F 92% 29.41 in 8.0 mi NW 12.7 mph - 0.00 in Rain Light Rain